{"data":{"norad_id":61739,"epoch":"2026-05-25T04:25:35.755104Z","epoch_age_seconds":65844,"freshness":"FRESH","line1":"1 61739U 24199E   26145.18444161  .00002105  00000+0  19693-3 0  9996","line2":"2 61739  97.3275 344.4866 0013732 134.9974 225.2362 14.95015374128315","mean_motion":14.95015374,"eccentricity":0.0013732,"inclination_deg":97.3275,"raan_deg":344.4866,"arg_perigee_deg":134.9974,"mean_anomaly_deg":225.2362,"bstar":0.00019693,"rev_number":12831,"period_min":96.320079715782,"perigee_km":572.76692556971,"apogee_km":591.88313849449,"semimajor_km":6960.4620320321,"source":"CELESTRAK","updated_at":"2026-05-25T13:38:02.530639Z"}}